• In Romania
  • List of Countries
  • For 7 days
  • Water Temperature
  • Satellite Maps
  • Weather Map
  • Weather Widgets
  • user-avatar
    Login

    Hourly Weather Ganja

    Today, 22 May, Tuesday

    Time Temperature Precipitation Wind Pressure Humidity
    00:00 +21°C° 0 mm 2 mps 727 mmHg 64%
    01:00 +20°C° 0 mm 2 mps 727 mmHg 66%
    02:00 +20°C° 0 mm 2 mps 727 mmHg 68%
    03:00 +19°C° 0 mm 2 mps 727 mmHg 70%
    04:00 +20°C° 0 mm 2 mps 727 mmHg 69%
    05:00 +20°C° 0 mm 2 mps 727 mmHg 69%
    06:00 +20°C° 0 mm 2 mps 728 mmHg 69%
    07:00 +23°C° 0 mm 2 mps 728 mmHg 64%
    08:00 +24°C° 0 mm 2 mps 728 mmHg 60%
    09:00 +25°C° 0 mm 2 mps 728 mmHg 55%
    10:00 +26°C° 0.1 mm 2 mps 728 mmHg 52%
    11:00 +27°C° 0.1 mm 2 mps 728 mmHg 49%
    12:00 +28°C° 0.1 mm 3 mps 728 mmHg 46%
    13:00 +29°C° 0.1 mm 3 mps 728 mmHg 44%
    14:00 +29°C° 0.1 mm 4 mps 727 mmHg 42%
    15:00 +30°C° 0.1 mm 4 mps 727 mmHg 40%
    16:00 +29°C° 0.1 mm 4 mps 727 mmHg 42%
    17:00 +28°C° 0.1 mm 4 mps 727 mmHg 44%
    18:00 +28°C° 0.1 mm 4 mps 727 mmHg 47%
    19:00 +26°C° 0.2 mm 4 mps 728 mmHg 48%
    20:00 +25°C° 0.2 mm 4 mps 728 mmHg 49%
    21:00 +24°C° 0.2 mm 3 mps 728 mmHg 51%
    22:00 +22°C° 0.1 mm 3 mps 728 mmHg 51%
    23:00 +21°C° 0.1 mm 3 mps 728 mmHg 51%

    Tomorrow, 23 May, Wednesday

    Time Temperature Precipitation Wind Pressure Humidity
    00:00 +21°C° 0.1 mm 2 mps 728 mmHg 52%
    01:00 +20°C° 0 mm 2 mps 728 mmHg 51%
    02:00 +20°C° 0 mm 2 mps 729 mmHg 50%
    03:00 +19°C° 0 mm 2 mps 729 mmHg 49%
    04:00 +19°C° 0 mm 2 mps 729 mmHg 50%
    05:00 +20°C° 0 mm 2 mps 729 mmHg 50%
    06:00 +20°C° 0 mm 2 mps 729 mmHg 50%
    07:00 +23°C° 0 mm 2 mps 729 mmHg 46%
    08:00 +24°C° 0 mm 2 mps 729 mmHg 41%
    09:00 +26°C° 0 mm 2 mps 729 mmHg 37%
    10:00 +27°C° 0 mm 2 mps 729 mmHg 35%
    11:00 +28°C° 0 mm 2 mps 729 mmHg 33%
    12:00 +29°C° 0 mm 2 mps 729 mmHg 31%
    13:00 +30°C° 0 mm 3 mps 728 mmHg 29%
    14:00 +32°C° 0 mm 4 mps 728 mmHg 28%
    15:00 +32°C° 0 mm 5 mps 727 mmHg 26%
    16:00 +30°C° 0 mm 4 mps 727 mmHg 29%
    17:00 +30°C° 0 mm 4 mps 727 mmHg 33%
    18:00 +29°C° 0 mm 4 mps 727 mmHg 36%
    19:00 +27°C° 0 mm 3 mps 727 mmHg 38%
    20:00 +25°C° 0 mm 3 mps 727 mmHg 39%
    21:00 +22°C° 0 mm 3 mps 727 mmHg 41%
    22:00 +22°C° 0 mm 3 mps 727 mmHg 41%
    23:00 +21°C° 0 mm 2 mps 727 mmHg 42%

    Day after tomorrow, 24 May, Thursday

    Time Temperature Precipitation Wind Pressure Humidity
    00:00 +20°C° 0 mm 2 mps 727 mmHg 42%
    01:00 +20°C° 0 mm 2 mps 727 mmHg 41%
    02:00 +19°C° 0 mm 2 mps 727 mmHg 41%
    03:00 +19°C° 0 mm 2 mps 727 mmHg 40%
    04:00 +19°C° 0 mm 2 mps 727 mmHg 41%
    05:00 +20°C° 0 mm 2 mps 726 mmHg 42%
    06:00 +20°C° 0 mm 2 mps 726 mmHg 43%
    07:00 +21°C° 0 mm 2 mps 726 mmHg 38%
    08:00 +24°C° 0 mm 2 mps 726 mmHg 34%
    09:00 +26°C° 0 mm 2 mps 726 mmHg 29%
    10:00 +27°C° 0 mm 2 mps 726 mmHg 28%
    11:00 +28°C° 0 mm 2 mps 725 mmHg 27%
    12:00 +29°C° 0 mm 2 mps 725 mmHg 26%
    13:00 +29°C° 0 mm 3 mps 725 mmHg 26%
    14:00 +30°C° 0 mm 3 mps 724 mmHg 26%
    15:00 +30°C° 0 mm 3 mps 724 mmHg 26%
    16:00 +30°C° 0 mm 3 mps 724 mmHg 29%
    17:00 +29°C° 0 mm 3 mps 723 mmHg 32%
    18:00 +28°C° 0 mm 3 mps 723 mmHg 35%
    19:00 +27°C° 0 mm 3 mps 723 mmHg 37%
    20:00 +25°C° 0 mm 3 mps 724 mmHg 38%
    21:00 +22°C° 0 mm 3 mps 724 mmHg 39%
    22:00 +21°C° 0 mm 2 mps 724 mmHg 40%
    23:00 +21°C° 0 mm 2 mps 724 mmHg 41%

    25 May, Friday

    Time Temperature Precipitation Wind Pressure Humidity
    00:00 +20°C° 0 mm 2 mps 724 mmHg 41%
    01:00 +19°C° 0 mm 2 mps 723 mmHg 42%
    02:00 +19°C° 0 mm 2 mps 723 mmHg 42%
    03:00 +19°C° 0 mm 1 mps 723 mmHg 42%
    04:00 +19°C° 0 mm 2 mps 723 mmHg 42%
    05:00 +19°C° 0 mm 2 mps 723 mmHg 43%
    06:00 +20°C° 0 mm 2 mps 723 mmHg 43%
    07:00 +23°C° 0 mm 2 mps 723 mmHg 39%
    08:00 +24°C° 0 mm 2 mps 723 mmHg 36%
    09:00 +26°C° 0 mm 2 mps 723 mmHg 32%
    10:00 +27°C° 0 mm 2 mps 723 mmHg 32%
    11:00 +28°C° 0 mm 2 mps 722 mmHg 31%
    12:00 +29°C° 0 mm 2 mps 722 mmHg 30%
    13:00 +29°C° 0 mm 2 mps 722 mmHg 30%
    14:00 +30°C° 0 mm 2 mps 721 mmHg 30%
    15:00 +30°C° 0 mm 2 mps 721 mmHg 30%
    16:00 +30°C° 0 mm 2 mps 721 mmHg 33%
    17:00 +29°C° 0 mm 2 mps 721 mmHg 35%
    18:00 +29°C° 0 mm 2 mps 721 mmHg 38%
    19:00 +27°C° 0.1 mm 2 mps 722 mmHg 41%
    20:00 +26°C° 0.1 mm 2 mps 722 mmHg 43%
    21:00 +24°C° 0.1 mm 2 mps 722 mmHg 46%
    22:00 +23°C° 0 mm 2 mps 722 mmHg 47%
    23:00 +23°C° 0 mm 2 mps 723 mmHg 48%

    26 May, Saturday

    Time Temperature Precipitation Wind Pressure Humidity
    00:00 +21°C° 0 mm 2 mps 723 mmHg 49%
    01:00 +22°C° 0 mm 1 mps 723 mmHg 50%
    02:00 +21°C° 0 mm 1 mps 723 mmHg 51%
    03:00 +21°C° 0 mm 1 mps 723 mmHg 52%
    04:00 +21°C° 0 mm 1 mps 723 mmHg 52%
    05:00 +22°C° 0 mm 1 mps 723 mmHg 51%
    06:00 +21°C° 0 mm 2 mps 723 mmHg 51%
    07:00 +24°C° 0 mm 2 mps 724 mmHg 47%
    08:00 +25°C° 0 mm 2 mps 724 mmHg 43%
    09:00 +27°C° 0 mm 2 mps 724 mmHg 39%
    10:00 +28°C° 0.1 mm 2 mps 724 mmHg 38%
    11:00 +28°C° 0.1 mm 2 mps 724 mmHg 38%
    12:00 +29°C° 0.1 mm 2 mps 724 mmHg 37%
    13:00 +30°C° 0.4 mm 2 mps 724 mmHg 37%
    14:00 +30°C° 0.4 mm 3 mps 724 mmHg 37%
    15:00 +30°C° 0.4 mm 3 mps 724 mmHg 38%
    16:00 +29°C° 0.3 mm 3 mps 724 mmHg 41%
    17:00 +28°C° 0.3 mm 3 mps 725 mmHg 45%
    18:00 +27°C° 0.3 mm 3 mps 725 mmHg 49%
    19:00 +26°C° 0.1 mm 3 mps 726 mmHg 51%
    20:00 +25°C° 0.1 mm 2 mps 726 mmHg 54%
    21:00 +24°C° 0.1 mm 2 mps 727 mmHg 57%
    22:00 +24°C° 0 mm 2 mps 727 mmHg 56%
    23:00 +24°C° 0 mm 2 mps 728 mmHg 55%

    27 May, Sunday

    Time Temperature Precipitation Wind Pressure Humidity
    00:00 +22°C° 0 mm 3 mps 728 mmHg 55%
    01:00 +22°C° 0 mm 3 mps 728 mmHg 55%
    02:00 +21°C° 0 mm 3 mps 728 mmHg 55%
    03:00 +21°C° 0 mm 2 mps 728 mmHg 55%
    04:00 +21°C° 0 mm 2 mps 729 mmHg 54%
    05:00 +21°C° 0 mm 2 mps 729 mmHg 53%
    06:00 +21°C° 0 mm 2 mps 730 mmHg 52%
    07:00 +24°C° 0 mm 3 mps 730 mmHg 47%
    08:00 +25°C° 0 mm 3 mps 730 mmHg 42%
    09:00 +27°C° 0 mm 3 mps 731 mmHg 37%
    10:00 +28°C° 0 mm 4 mps 731 mmHg 36%
    11:00 +29°C° 0 mm 5 mps 730 mmHg 34%
    12:00 +30°C° 0 mm 5 mps 730 mmHg 33%
    13:00 +30°C° 0 mm 5 mps 730 mmHg 32%
    14:00 +30°C° 0 mm 6 mps 730 mmHg 32%
    15:00 +32°C° 0 mm 6 mps 730 mmHg 32%
    16:00 +30°C° 0 mm 6 mps 730 mmHg 35%
    17:00 +29°C° 0 mm 6 mps 730 mmHg 38%
    18:00 +28°C° 0 mm 5 mps 730 mmHg 40%
    19:00 +26°C° 0 mm 5 mps 731 mmHg 43%
    20:00 +25°C° 0 mm 5 mps 731 mmHg 46%
    21:00 +22°C° 0 mm 5 mps 732 mmHg 49%
    22:00 +21°C° 0 mm 4 mps 731 mmHg 50%
    23:00 +21°C° 0 mm 4 mps 731 mmHg 51%
    Show more